Location: Geroldsau
(48.7259°N, 8.2466°E)
Time: 18:09:17
(UTC+00:00)

FALCON 9 DEB - Pass Details

Date: 26 October 2021
Orbit: 337 x 349 km, 53.0° (Epoch: 30 November)

Event Time Altitude Azimuth Distance (km) Brightness Sun altitude
Rises 17:19:32 0° 206° (SSW) 2,161 7.2 -10.9°
Reaches altitude 10° 17:21:50 10° 189° (S) 1,328 5.8 -11.3°
Maximum altitude 17:24:06 20° 139° (SE) 903 4.4 -11.7°
Enters shadow 17:24:58 18° 114° (ESE) 982 4.4 -11.8°
